SAS9931 ESNQ-EVVA

Flight info

Callsign SAS9931
Flight time N/A
Altitude 40000
Route VAGAS T317 OSK T318 SIPRI/N0474F410 DCT XILAN N616 TOMBU/N0405F270 N616 NEKET DCT MILTA
Aircraft A359/H-SDE2E3GHIJ3J4J5LM1ORWXY/LB1D1

Departure

Time 2026-04-29 18:20
Airport Kiruna Airport (ESNQ)

Arrival

Time N/A
Airport Ventspils International Airport (EVVA)
Time Latitude Longitude Altitude Speed Heading
2026-04-29 18:01 67.82468 20.33357 1481 ft 0 kts 35°
2026-04-29 18:17 67.82470 20.33359 1482 ft 1 kts 39°
2026-04-29 18:17 67.82478 20.33426 1482 ft 5 kts 84°
2026-04-29 18:17 67.82472 20.33558 1480 ft 9 kts 109°
2026-04-29 18:18 67.82452 20.33677 1479 ft 3 kts 114°
2026-04-29 18:18 67.82436 20.33757 1477 ft 7 kts 121°
2026-04-29 18:18 67.82400 20.33917 1475 ft 11 kts 109°
2026-04-29 18:18 67.82455 20.34124 1469 ft 18 kts 34°
2026-04-29 18:19 67.82605 20.34388 1461 ft 34 kts 33°
2026-04-29 18:19 67.82833 20.34794 1445 ft 31 kts 34°
2026-04-29 18:19 67.83083 20.35227 1426 ft 0 kts 34°
2026-04-29 18:19 67.83080 20.35224 1427 ft 0 kts 210°
2026-04-29 18:20 67.82989 20.35073 1433 ft 52 kts 212°
2026-04-29 18:20 67.82443 20.34109 1470 ft 132 kts 213°
2026-04-29 18:20 67.81599 20.32630 2168 ft 146 kts 214°
2026-04-29 18:20 67.80830 20.31311 3181 ft 137 kts 210°
2026-04-29 18:21 67.79874 20.30954 3770 ft 149 kts 169°
2026-04-29 18:21 67.78845 20.31840 4309 ft 164 kts 162°
2026-04-29 18:21 67.77692 20.32988 5057 ft 195 kts 161°
2026-04-29 18:21 67.76391 20.34277 6145 ft 213 kts 162°
2026-04-29 18:22 67.74972 20.35515 7239 ft 228 kts 175°
2026-04-29 18:22 67.73385 20.35367 8380 ft 236 kts 197°
2026-04-29 18:22 67.71774 20.34407 9454 ft 250 kts 202°
2026-04-29 18:22 67.70043 20.33241 10477 ft 268 kts 201°
2026-04-29 18:23 67.68205 20.32074 11411 ft 285 kts 199°
2026-04-29 18:23 67.66227 20.30935 12347 ft 304 kts 198°
2026-04-29 18:23 67.64104 20.29791 13219 ft 322 kts 196°
2026-04-29 18:23 67.61857 20.28640 14013 ft 340 kts 195°
2026-04-29 18:24 67.59510 20.27463 14735 ft 357 kts 195°
2026-04-29 18:24 67.57400 20.26415 15297 ft 373 kts 195°
2026-04-29 18:24 67.54791 20.25123 15921 ft 391 kts 195°
2026-04-29 18:24 67.52062 20.23769 16496 ft 409 kts 195°
2026-04-29 18:25 67.49249 20.22380 17026 ft 426 kts 195°
2026-04-29 18:25 67.46278 20.20909 17511 ft 444 kts 195°
2026-04-29 18:25 67.43203 20.19383 17924 ft 461 kts 195°
2026-04-29 18:25 67.40023 20.17816 18488 ft 473 kts 195°
2026-04-29 18:26 67.36780 20.16228 19221 ft 479 kts 195°
2026-04-29 18:26 67.33483 20.14821 20028 ft 484 kts 192°
2026-04-29 18:26 67.30152 20.13735 20803 ft 488 kts 191°
2026-04-29 18:26 67.26798 20.12593 21524 ft 491 kts 192°
2026-04-29 18:27 67.23427 20.11441 22177 ft 496 kts 192°
2026-04-29 18:27 67.19982 20.10266 22831 ft 500 kts 192°
2026-04-29 18:27 67.16565 20.09104 23433 ft 502 kts 192°
2026-04-29 18:27 67.13094 20.07935 24029 ft 505 kts 192°
2026-04-29 18:28 67.09646 20.06773 24538 ft 509 kts 192°
2026-04-29 18:28 67.06133 20.05598 25033 ft 513 kts 192°